Location: FWAS Thompsen Ranch
(33.4402°N, 97.5607°W)
Time: 19:42:20
(UTC-06:00)

ISS - Visible Passes

Search period start: 25 February 2018 00:00
Search period end: 07 March 2018 00:00
Orbit: 403 x 406 km, 51.6° (Epoch: 26 February)

Date Brightness Start Highest point End Pass type
(mag) Time Alt. Az. Time Alt. Az. Time Alt. Az.
25 Feb -3.4 06:21:21 10° SW 06:24:35 65° SE 06:27:49 10° NE visible
26 Feb -1.9 05:30:38 17° S 05:32:27 28° SE 05:35:18 10° ENE visible
27 Feb -0.5 04:41:23 12° ESE 04:41:23 12° ESE 04:42:02 10° E visible
27 Feb -3.3 06:14:05 14° WSW 06:16:34 41° NW 06:19:42 10° NNE visible
28 Feb -3.7 05:24:34 74° NE 05:24:34 74° NE 05:27:35 10° NE visible
01 Mar -0.4 04:34:51 12° ENE 04:34:51 12° ENE 04:35:10 10° ENE visible
01 Mar -2.0 06:07:32 16° WNW 06:08:41 18° NNW 06:11:02 10° NNE visible
02 Mar -1.9 05:17:39 22° N 05:17:39 22° N 05:19:15 10° NNE visible
04 Mar -1.0 05:10:12 11° N 05:10:12 11° N 05:10:22 10° N visible
